Selawik, AK

10:29 PM AKDT on September 19, 2017 (GMT -0800)
Selawik

Weather History for PASK - August, 2014

Change the Weather History Date:

Saturday, August 9, 2014

  Actual Average Record
Temperature  
Mean Temperature 64 °F -  
Max Temperature 71 °F 56 °F 75 °F (2003)
Min Temperature 57 °F 47 °F 42 °F (2015)
Degree Days  
Heating Degree Days 1    
Growing Degree Days 14 (Base 50)    
Moisture  
Dew Point 50 °F    
Average Humidity 59    
Maximum Humidity 72    
Minimum Humidity 46    
Precipitation  
Precipitation 0.00 in - - ()
Sea Level Pressure  
Sea Level Pressure 29.69 in    
Wind  
Wind Speed 16 mph (NE)    
Max Wind Speed 22 mph    
Max Gust Speed 29 mph    
Visibility 10 miles    
Events      
Averages and records for this station are not official NWS values.
T = Trace of Precipitation, MM = Missing Value Source: NWS Daily Summary

Daily Weather History Graph

Daily Weather History Graph

Search for Another Location

Airport or City:

Trip Planner

Search our weather history database for the weather conditions in past years. The results will help you decide how hot, cold, wet, or windy it might be!

Date:

Astronomy

Aug. 09, 2014 Rise Set
Actual Time 5:50 AM AKDT 11:37 PM AKDT
Civil Twilight 4:13 AM AKDT 1:10 AM AKDT
Nautical Twilight Sun does not set Sun does not set
Astronomical Twilight Sun does not set Sun does not set
Moon 10:23 PM AKDT (8/9) 4:48 AM AKDT (8/9)
Length of Visible Light 20h 56m
Length of Day
17h 46m
Waxing Gibbous, 99% of the Moon is Illuminated
Aug 9
Waxing Gibbous
Aug 10
Full
Aug 17
Last Quarter
Aug 25
New
Sep 2
First Quarter

Hourly Weather History & Observations

Time (AKDT) Temp. Dew Point Humidity Pressure Visibility Wind Dir Wind Speed Gust Speed Precip Events Conditions
12:16 AM 64.4 °F 53.6 °F 68% 29.64 in 10.0 mi ENE 13.8 mph - N/A   Partly Cloudy
12:36 AM 62.6 °F 51.8 °F 68% 29.64 in 10.0 mi NE 13.8 mph - N/A   Mostly Cloudy
12:56 AM 62.6 °F 51.8 °F 68% 29.64 in 10.0 mi NE 12.7 mph - N/A   Mostly Cloudy
1:16 AM 62.6 °F 51.8 °F 68% 29.65 in 10.0 mi ENE 13.8 mph - N/A   Overcast
1:36 AM 62.6 °F 51.8 °F 68% 29.65 in 10.0 mi NE 15.0 mph - N/A   Overcast
1:56 AM 62.6 °F 51.8 °F 68% 29.65 in 10.0 mi NE 12.7 mph - N/A   Overcast
2:16 AM 60.8 °F 50.0 °F 68% 29.66 in 10.0 mi NE 13.8 mph - N/A   Overcast
2:36 AM 60.8 °F 50.0 °F 68% 29.66 in 10.0 mi NE 13.8 mph - N/A   Overcast
2:56 AM 60.8 °F 48.2 °F 63% 29.67 in 10.0 mi NE 16.1 mph - N/A   Overcast
3:16 AM 59.0 °F 48.2 °F 67% 29.67 in 10.0 mi NE 16.1 mph - N/A   Mostly Cloudy
3:36 AM 59.0 °F 48.2 °F 67% 29.67 in 10.0 mi NE 16.1 mph - N/A   Clear
3:56 AM 59.0 °F 48.2 °F 67% 29.67 in 10.0 mi NE 16.1 mph 20.7 mph N/A   Mostly Cloudy
4:16 AM 59.0 °F 48.2 °F 67% 29.68 in 10.0 mi NE 16.1 mph - N/A   Overcast
4:36 AM 59.0 °F 48.2 °F 67% 29.68 in 10.0 mi NE 17.3 mph - N/A   Overcast
4:56 AM 59.0 °F 48.2 °F 67% 29.68 in 10.0 mi NE 15.0 mph 20.7 mph N/A   Mostly Cloudy
5:16 AM 59.0 °F 48.2 °F 67% 29.68 in 10.0 mi NE 15.0 mph - N/A   Overcast
5:36 AM 57.2 °F 48.2 °F 72% 29.68 in 10.0 mi NE 13.8 mph - N/A   Scattered Clouds
5:56 AM 57.2 °F 48.2 °F 72% 29.69 in 10.0 mi NE 15.0 mph - N/A   Partly Cloudy
6:16 AM 57.2 °F 48.2 °F 72% 29.69 in 10.0 mi NE 13.8 mph - N/A   Clear
6:36 AM 57.2 °F 48.2 °F 72% 29.69 in 10.0 mi NE 16.1 mph - N/A   Clear
6:56 AM 57.2 °F 48.2 °F 72% 29.70 in 10.0 mi NE 15.0 mph 19.6 mph N/A   Clear
7:16 AM 57.2 °F 48.2 °F 72% 29.70 in 10.0 mi NE 17.3 mph - N/A   Clear
7:36 AM 57.2 °F 48.2 °F 72% 29.70 in 10.0 mi NE 18.4 mph - N/A   Clear
7:56 AM 57.2 °F 48.2 °F 72% 29.70 in 10.0 mi NE 17.3 mph - N/A   Clear
8:16 AM 59.0 °F 48.2 °F 67% 29.70 in 10.0 mi NE 18.4 mph - N/A   Clear
8:36 AM 60.8 °F 48.2 °F 63% 29.70 in 10.0 mi NE 19.6 mph - N/A   Clear
8:56 AM 60.8 °F 48.2 °F 63% 29.70 in 10.0 mi NE 16.1 mph 21.9 mph N/A   Clear
9:16 AM 60.8 °F 48.2 °F 63% 29.71 in 10.0 mi NE 17.3 mph - N/A   Clear
9:36 AM 62.6 °F 48.2 °F 59% 29.71 in 10.0 mi ENE 21.9 mph 28.8 mph N/A   Clear
9:56 AM 62.6 °F 48.2 °F 59% 29.71 in 10.0 mi ENE 19.6 mph 25.3 mph N/A   Clear
10:16 AM 64.4 °F 48.2 °F 56% 29.71 in 10.0 mi ENE 21.9 mph - N/A   Clear
10:36 AM 64.4 °F 48.2 °F 56% 29.71 in 10.0 mi ENE 18.4 mph - N/A   Clear
10:56 AM 64.4 °F 48.2 °F 56% 29.71 in 10.0 mi ENE 19.6 mph - N/A   Clear
11:16 AM 64.4 °F 48.2 °F 56% 29.71 in 10.0 mi NE 19.6 mph - N/A   Clear
11:36 AM 64.4 °F 48.2 °F 56% 29.71 in 10.0 mi ENE 20.7 mph 25.3 mph N/A   Clear
11:56 AM 64.4 °F 48.2 °F 56% 29.72 in 10.0 mi ENE 20.7 mph 28.8 mph N/A   Clear
12:16 PM 66.2 °F 48.2 °F 52% 29.72 in 10.0 mi ENE 20.7 mph 27.6 mph N/A   Clear
12:36 PM 66.2 °F 50.0 °F 56% 29.71 in 10.0 mi East 18.4 mph - N/A   Clear
12:56 PM 66.2 °F 51.8 °F 60% 29.71 in 10.0 mi East 16.1 mph 21.9 mph N/A   Clear
1:16 PM 68.0 °F 50.0 °F 52% 29.71 in 10.0 mi ENE 17.3 mph - N/A   Clear
1:36 PM 68.0 °F 50.0 °F 52% 29.71 in 10.0 mi NE 17.3 mph 23.0 mph N/A   Clear
1:56 PM 68.0 °F 50.0 °F 52% 29.70 in 10.0 mi NE 18.4 mph - N/A   Clear
2:16 PM 69.8 °F 50.0 °F 49% 29.70 in 10.0 mi NE 20.7 mph 24.2 mph N/A   Clear
2:36 PM 69.8 °F 50.0 °F 49% 29.70 in 10.0 mi ENE 19.6 mph 23.0 mph N/A   Clear
2:56 PM 69.8 °F 50.0 °F 49% 29.70 in 10.0 mi NE 17.3 mph 27.6 mph N/A   Clear
3:16 PM 69.8 °F 50.0 °F 49% 29.69 in 10.0 mi ENE 19.6 mph 24.2 mph N/A   Clear
3:36 PM 69.8 °F 50.0 °F 49% 29.69 in 10.0 mi ENE 18.4 mph 25.3 mph N/A   Clear
3:56 PM 69.8 °F 50.0 °F 49% 29.69 in 10.0 mi ENE 17.3 mph 26.5 mph N/A   Clear
4:16 PM 69.8 °F 50.0 °F 49% 29.69 in 10.0 mi ENE 18.4 mph - N/A   Clear
4:36 PM 69.8 °F 51.8 °F 53% 29.69 in 10.0 mi ENE 18.4 mph - N/A   Clear
4:56 PM 71.6 °F 50.0 °F 46% 29.68 in 10.0 mi ENE 16.1 mph - N/A   Clear
5:16 PM 71.6 °F 51.8 °F 50% 29.68 in 10.0 mi ENE 18.4 mph - N/A   Clear
5:36 PM 71.6 °F 51.8 °F 50% 29.68 in 10.0 mi ENE 16.1 mph - N/A   Clear
5:56 PM 71.6 °F 50.0 °F 46% 29.68 in 10.0 mi NE 18.4 mph - N/A   Clear
6:16 PM 71.6 °F 50.0 °F 46% 29.67 in 10.0 mi ENE 18.4 mph - N/A   Clear
6:36 PM 71.6 °F 50.0 °F 46% 29.67 in 10.0 mi ENE 17.3 mph 21.9 mph N/A   Clear
6:56 PM 71.6 °F 51.8 °F 50% 29.68 in 10.0 mi ENE 15.0 mph - N/A   Clear
7:16 PM 71.6 °F 50.0 °F 46% 29.67 in 10.0 mi NE 16.1 mph - N/A   Clear
7:36 PM 71.6 °F 50.0 °F 46% 29.67 in 10.0 mi NE 17.3 mph - N/A   Clear
7:56 PM 71.6 °F 50.0 °F 46% 29.67 in 10.0 mi ENE 13.8 mph - N/A   Clear
8:16 PM 71.6 °F 51.8 °F 50% 29.67 in 10.0 mi NE 15.0 mph - N/A   Clear
8:36 PM 71.6 °F 51.8 °F 50% 29.67 in 10.0 mi NE 13.8 mph - N/A   Clear
8:56 PM 71.6 °F 51.8 °F 50% 29.67 in 10.0 mi NE 12.7 mph 18.4 mph N/A   Clear
9:16 PM 69.8 °F 51.8 °F 53% 29.68 in 10.0 mi NE 11.5 mph - N/A   Clear
9:36 PM 69.8 °F 53.6 °F 56% 29.68 in 10.0 mi ENE 10.4 mph - N/A   Clear
9:56 PM 69.8 °F 53.6 °F 56% 29.68 in 10.0 mi NE 10.4 mph - N/A   Clear
10:16 PM 68.0 °F 51.8 °F 56% 29.68 in 10.0 mi NE 10.4 mph - N/A   Clear
10:36 PM 66.2 °F 53.6 °F 64% 29.69 in 10.0 mi NE 10.4 mph - N/A   Clear
10:56 PM 66.2 °F 51.8 °F 60% 29.69 in 10.0 mi NE 16.1 mph 20.7 mph N/A   Clear
11:16 PM 66.2 °F 51.8 °F 60% 29.70 in 10.0 mi NE 10.4 mph - N/A   Clear
11:36 PM 64.4 °F 51.8 °F 64% 29.70 in 10.0 mi NE 12.7 mph - N/A   Clear
11:56 PM 64.4 °F 51.8 °F 64% 29.70 in 10.0 mi NE 12.7 mph - N/A   Clear